[[{"header":{"parameterUnit":"m.s-1","parameterCategory":1,"la1":30.2991,"la2":30.254,"lo1":-89.0895,"lo2":-89.0444,"dy":0.0017,"dx":0.0017,"nx":28,"ny":28,"refTime":"2023-08-19T21:00:00:Z","depth":0,"parameterNumber":2,"parameterNumberName":"U-component_of_WINDS"},"data":[0,0,0,0,0,0,0,0,0,0,0,0,0,0,0,0,0,0,0,0,0,0,0,0,0,0,0,0,0,0,0,0,0,0,0,0,0,0,0,0,0,0,0,0,0,0,0,0,0,0,0,0,0,0,0,0,0,0,-7.0783,-7.0783,0,-7.0805,-7.0806,-7.0806,-7.0675,-7.0671,-7.0668,-7.0664,-7.0687,-7.0691,-7.0695,0,0,0,0,0,0,0,0,0,0,0,0,0,-7.0628,-7.0631,-7.0783,-7.0783,-7.0783,-7.0805,-7.0806,-7.0806,-7.0676,-7.0671,-7.0667,-7.0662,-7.0685,-7.069,-7.0695,0,0,0,0,0,0,0,0,0,0,0,0,0,-7.0677,-7.0632,-7.0783,-7.0721,-7.0716,-7.0805,-7.0806,-7.0806,-7.0677,-7.0671,-7.0665,-7.066,-7.0684,-7.069,-7.0696,-7.0845,0,0,-7.0714,-7.0717,0,0,0,0,0,0,0,0,-7.0675,-7.0683,-7.073,-7.0725,-7.072,-7.0732,-7.0759,-7.0819,-7.0678,-7.0692,-7.0664,-7.0658,-7.0706,-7.071,-7.0727,-7.0846,-7.0847,-7.0715,-7.0719,-7.0721,-7.0723,0,0,0,0,0,0,0,-7.0671,-7.0681,-7.0792,-7.0731,-7.0725,-7.0692,-7.0693,-7.077,-7.073,-7.069,-7.068,-7.0685,-7.0702,-7.0721,-7.0726,-7.0848,-7.0715,-7.072,-7.0724,-7.0726,-7.1093,-7.1099,0,0,0,0,0,0,-7.0676,-7.0679,-7.0791,-7.0792,-7.0683,-7.07,-7.0701,-7.0733,-7.0729,-7.0723,-7.069,-7.0679,-7.0713,-7.0719,-7.0726,-7.0902,-7.0721,-7.0727,-7.0731,-7.1087,-7.1095,-7.1101,0,0,0,0,0,0,-7.0673,-7.0687,-7.079,-7.0733,-7.0744,-7.0708,-7.0746,-7.0737,-7.0755,-7.0729,-7.0721,-7.0716,-7.0709,-7.0718,-7.0817,-7.0901,-7.073,-7.0735,-7.108,-7.109,-7.1098,-7.1255,0,0,0,0,0,0,-7.0669,-7.0687,-7.0743,-7.0736,-7.0747,-7.0881,-7.0751,-7.0741,-7.0766,-7.0752,-7.0751,-7.0746,-7.0705,-7.0809,-7.0823,-7.0906,-7.074,-7.1072,-7.1084,-7.1095,-7.1242,-7.1268,-7.1291,0,0,0,0,0,-7.0664,-7.0786,-7.0747,-7.0761,-7.0817,-7.0886,-7.0892,-7.0844,-7.0774,-7.083,-7.0813,-7.0746,-7.089,-7.082,-7.0835,-7.0922,-7.1067,-7.1081,-7.1094,-7.1231,-7.1263,-7.129,0,0,0,0,0,0,-7.0803,-7.0784,-7.074,-7.0863,-7.0877,-7.0863,-7.0933,-7.0879,-7.0913,-7.0898,-7.0836,-7.0837,-7.0948,-7.0944,-7.0867,-7.1067,-7.0966,-7.0984,-7.1065,-7.1095,-7.1119,-7.1117,-7.0745,0,0,0,0,0,-7.0849,-7.0906,-7.0885,-7.0996,-7.1005,-7.0969,-7.0996,-7.0958,-7.097,-7.0975,-7.0965,-7.098,-7.1028,-7.1061,-7.1104,-7.1241,-7.124,-7.1308,-7.1333,-7.1353,-7.1368,-7.1442,-7.1472,-7.1146,-7.1146,-7.1146,0,0,-7.0942,-7.0938,-7.0978,-7.1024,-7.103,-7.1092,-7.0974,-7.1043,-7.1088,-7.0986,-7.1079,-7.1073,-7.1085,-7.1204,-7.1256,-7.1205,-7.1458,-7.137,-7.1386,-7.1391,-7.1459,-7.149,-7.1518,-7.1155,-7.1154,-7.1152,0,0,-7.1143,-7.1146,-7.1239,-7.1249,-7.1261,-7.1236,-7.1258,-7.1254,-7.1246,-7.1339,-7.1264,-7.1316,-7.1401,-7.1413,-7.143,-7.164,-7.158,-7.1656,-7.1783,-7.1855,-7.1881,-7.1903,-7.1979,-7.2007,-7.1672,-7.1672,-7.1672,0,-7.1258,-7.1347,-7.1294,-7.1369,-7.1392,-7.1303,-7.1397,-7.1408,-7.1434,-7.1452,-7.1394,-7.15,-7.1502,-7.1623,-7.1675,-7.1692,-7.1716,-7.1655,-7.1881,-7.1903,-7.1924,-7.1995,-7.2024,-7.1681,-7.168,-7.1679,-7.1678,0,-7.1488,-7.1551,-7.1625,-7.1653,-7.1684,-7.1768,-7.1728,-7.1766,-7.1726,-7.1708,-7.1805,-7.1804,-7.1846,-7.1872,-7.1833,-7.1989,-7.1957,-7.1892,-7.1789,-7.1965,-7.2031,-7.2058,-7.1694,-7.1691,-7.1688,-7.1686,0,0,-7.1776,-7.1775,-7.1803,-7.1815,-7.1823,-7.1871,-7.1952,-7.1994,-7.2028,-7.205,-7.2116,-7.2192,-7.2132,-7.2152,-7.2113,-7.2177,-7.2345,-7.2103,-7.2103,-7.2149,-7.2518,-7.2567,-7.26,-7.2305,-7.231,-7.2314,-7.2517,0,-7.1973,-7.2112,-7.2067,-7.2207,-7.2266,-7.2184,-7.2254,-7.2267,-7.2253,-7.2301,-7.2284,-7.2339,-7.2255,-7.2267,-7.2326,-7.2312,-7.2418,-7.2296,-7.2367,-7.237,-7.2367,-7.2634,-7.2686,-7.2878,-7.2543,-7.2547,-7.255,0,-7.2222,-7.2254,-7.2401,-7.24,-7.2423,-7.2488,-7.2524,-7.257,-7.2584,-7.2569,-7.2593,-7.2542,-7.2622,-7.252,-7.2631,-7.2549,-7.2576,-7.2573,-7.258,-7.2584,-7.2471,-7.2646,-7.2937,-7.2967,-7.259,-7.2587,-7.2584,0,-7.2418,-7.2498,-7.2597,-7.261,-7.2612,-7.2659,-7.2662,-7.267,-7.2699,-7.2731,-7.2749,-7.279,-7.2812,-7.2845,-7.2807,-7.2736,-7.2924,-7.2818,-7.2914,-7.2915,-7.2956,-7.2954,-7.3257,-7.2974,-7.2974,-7.2973,-7.2973,0,-7.2643,-7.2736,-7.2685,-7.2746,-7.2848,-7.2797,-7.2899,-7.2893,-7.2902,-7.296,-7.2891,-7.2947,-7.2893,-7.2945,-7.2916,-7.3013,-7.3023,-7.3014,-7.3005,-7.302,-7.3021,-7.3036,-7.3022,-7.2981,-7.2979,-7.2978,-7.2976,0,-7.2879,-7.2849,-7.2951,-7.2945,-7.2946,-7.3022,-7.3017,-7.3073,-7.3054,-7.3129,-7.3144,-7.3115,-7.3173,-7.3138,-7.3197,-7.3177,-7.3303,-7.3276,-7.3299,-7.3292,-7.339,-7.3381,-7.3712,-7.3753,-7.3445,-7.3448,-7.345,0,-7.3025,-7.3095,-7.3097,-7.3132,-7.314,-7.3196,-7.3225,-7.3178,-7.3212,-7.3234,-7.3288,-7.334,-7.3379,-7.3475,-7.346,-7.3504,-7.3478,-7.3591,-7.3484,-7.3498,-7.348,-7.3477,-7.3484,-7.3612,-7.3616,-7.3619,-7.3621,0,-7.3287,-7.3269,-7.3314,-7.3356,-7.3393,-7.3423,-7.3447,-7.3479,-7.3432,-7.3474,-7.3532,-7.3563,-7.3624,-7.3676,-7.3715,-7.3718,-7.3663,-7.3655,-7.368,-7.3696,-7.3707,-7.3703,-7.3358,-7.3647,-7.3645,-7.3643,-7.3641,-7.364,-7.3482,-7.3541,-7.3553,-7.3606,-7.362,-7.3645,-7.3698,-7.3687,-7.3735,-7.3781,-7.375,-7.382,-7.3833,-7.388,-7.3891,-7.3945,-7.3899,-7.3935,-7.3944,-7.3953,-7.3967,-7.3699,-7.3951,-7.3951,-7.395,-7.3949,-7.3949,0,-7.3741,-7.3745,-7.3795,-7.3831,-7.3874,-7.3819,-7.3844,-7.3883,-7.3945,-7.3963,-7.4003,-7.4072,-7.4123,-7.4113,-7.416,-7.4205,-7.4181,-7.4219,-7.4215,-7.4217,-7.4005,-7.3979,-7.4238,-7.4238,-7.4238,-7.4238,-7.4238,-7.4238,-7.388,-7.3978,-7.3962,-7.4066,-7.4069,-7.4137,-7.4156,-7.4179,-7.4193,-7.4273,-7.4315,-7.4309,-7.4316,-7.4363,-7.4408,-7.4404,-7.4424,-7.4472,-7.4459,-7.426,-7.4232,-7.4205,-7.418,-7.4477,-7.4477,-7.4666,-7.4668,-7.467]},{"header":{"parameterUnit":"m.s-1","parameterCategory":1,"la1":30.2991,"la2":30.254,"lo1":-89.0895,"lo2":-89.0444,"dy":0.0017,"dx":0.0017,"nx":28,"ny":28,"refTime":"2023-08-19T21:00:00:Z","depth":0,"parameterNumber":3,"parameterNumberName":"V-component_of_WINDS"},"data":[0,0,0,0,0,0,0,0,0,0,0,0,0,0,0,0,0,0,0,0,0,0,0,0,0,0,0,0,0,0,0,0,0,0,0,0,0,0,0,0,0,0,0,0,0,0,0,0,0,0,0,0,0,0,0,0,0,0,-0.4149,-0.4148,0,-0.4116,-0.4116,-0.4115,-0.4045,-0.4044,-0.4042,-0.4041,-0.4008,-0.4009,-0.4009,0,0,0,0,0,0,0,0,0,0,0,0,0,-0.415,-0.415,-0.4149,-0.4148,-0.4148,-0.4116,-0.4116,-0.4115,-0.4045,-0.4044,-0.4042,-0.404,-0.4008,-0.4009,-0.4009,0,0,0,0,0,0,0,0,0,0,0,0,0,-0.4137,-0.415,-0.4149,-0.4109,-0.4105,-0.4116,-0.4116,-0.4115,-0.4046,-0.4043,-0.4041,-0.4039,-0.4008,-0.4009,-0.401,-0.4057,0,0,-0.4012,-0.4012,0,0,0,0,0,0,0,0,-0.4137,-0.4137,-0.4115,-0.4112,-0.4107,-0.4082,-0.4104,-0.4095,-0.4046,-0.4068,-0.4041,-0.4038,-0.4035,-0.4033,-0.4032,-0.4055,-0.4054,-0.4012,-0.4012,-0.4012,-0.4013,0,0,0,0,0,0,0,-0.4138,-0.4138,-0.4136,-0.4115,-0.411,-0.4093,-0.4088,-0.4102,-0.4064,-0.4066,-0.4061,-0.4058,-0.4032,-0.4031,-0.4031,-0.4053,-0.4012,-0.4012,-0.4013,-0.4013,-0.4112,-0.4114,0,0,0,0,0,0,-0.4145,-0.4139,-0.4137,-0.4135,-0.4117,-0.4094,-0.409,-0.4093,-0.4064,-0.4057,-0.406,-0.4055,-0.4031,-0.403,-0.4029,-0.4081,-0.4012,-0.4013,-0.4013,-0.4109,-0.4112,-0.4115,0,0,0,0,0,0,-0.4145,-0.4146,-0.4138,-0.4135,-0.4133,-0.4097,-0.4101,-0.4093,-0.4092,-0.4059,-0.4052,-0.4066,-0.4029,-0.4028,-0.405,-0.4079,-0.4013,-0.4014,-0.4107,-0.411,-0.4113,-0.4187,0,0,0,0,0,0,-0.4146,-0.4146,-0.4164,-0.4136,-0.4133,-0.416,-0.4102,-0.4094,-0.4093,-0.4086,-0.4063,-0.4057,-0.4028,-0.4049,-0.4051,-0.4079,-0.4015,-0.4104,-0.4108,-0.4112,-0.4182,-0.4193,-0.4202,0,0,0,0,0,-0.4146,-0.4187,-0.4165,-0.4165,-0.4155,-0.4162,-0.416,-0.4126,-0.4096,-0.4113,-0.4092,-0.4057,-0.4076,-0.4052,-0.4053,-0.4082,-0.4102,-0.4107,-0.4112,-0.4178,-0.4191,-0.4202,0,0,0,0,0,0,-0.422,-0.4182,-0.4158,-0.4191,-0.418,-0.415,-0.4171,-0.4141,-0.4138,-0.4132,-0.4089,-0.4084,-0.4112,-0.4099,-0.4073,-0.4125,-0.4083,-0.4089,-0.4133,-0.4145,-0.4155,-0.4158,-0.4015,0,0,0,0,0,-0.424,-0.4248,-0.4215,-0.4247,-0.4243,-0.4208,-0.421,-0.4184,-0.4171,-0.4166,-0.4146,-0.4134,-0.4137,-0.414,-0.4141,-0.418,-0.4173,-0.42,-0.421,-0.4218,-0.4224,-0.4242,-0.4253,-0.4131,-0.4131,-0.4131,0,0,-0.4282,-0.4262,-0.427,-0.4262,-0.425,-0.4259,-0.4205,-0.4217,-0.4224,-0.4168,-0.4187,-0.4172,-0.4156,-0.4186,-0.4198,-0.4176,-0.4256,-0.4224,-0.4231,-0.4232,-0.4248,-0.426,-0.427,-0.4134,-0.4134,-0.4133,0,0,-0.4362,-0.4349,-0.4373,-0.4362,-0.4345,-0.4321,-0.4327,-0.4301,-0.4288,-0.4306,-0.4264,-0.4271,-0.4277,-0.4268,-0.4264,-0.4338,-0.4306,-0.434,-0.4392,-0.441,-0.442,-0.4428,-0.4454,-0.4464,-0.4345,-0.4345,-0.4345,0,-0.4417,-0.4429,-0.439,-0.4405,-0.4402,-0.435,-0.4375,-0.4366,-0.435,-0.4349,-0.4325,-0.433,-0.4316,-0.4343,-0.4361,-0.4359,-0.4364,-0.4343,-0.4421,-0.4429,-0.4436,-0.4461,-0.4471,-0.4349,-0.4349,-0.4348,-0.4348,0,-0.4496,-0.4505,-0.4527,-0.4512,-0.4512,-0.4532,-0.4495,-0.4499,-0.4473,-0.4451,-0.447,-0.4451,-0.4446,-0.445,-0.4425,-0.4473,-0.446,-0.4429,-0.4386,-0.4453,-0.4475,-0.4484,-0.4355,-0.4354,-0.4353,-0.4352,0,0,-0.4624,-0.4586,-0.4595,-0.4586,-0.4562,-0.4569,-0.4585,-0.458,-0.4584,-0.4575,-0.4587,-0.4593,-0.4563,-0.4559,-0.4532,-0.4548,-0.4607,-0.4514,-0.4513,-0.4532,-0.4658,-0.4681,-0.4693,-0.4585,-0.4587,-0.4588,-0.4659,0,-0.4699,-0.4726,-0.469,-0.4725,-0.4732,-0.4682,-0.4697,-0.4683,-0.4663,-0.4666,-0.4644,-0.4649,-0.461,-0.4606,-0.462,-0.4597,-0.4632,-0.4592,-0.4597,-0.4598,-0.4603,-0.4705,-0.473,-0.4798,-0.4667,-0.4669,-0.467,0,-0.4791,-0.4785,-0.482,-0.4792,-0.4794,-0.4808,-0.4799,-0.4803,-0.4786,-0.477,-0.4764,-0.4732,-0.4745,-0.4703,-0.4721,-0.4695,-0.4694,-0.4683,-0.4685,-0.4685,-0.4638,-0.4707,-0.4818,-0.4829,-0.4683,-0.4682,-0.4681,0,-0.4881,-0.4881,-0.4901,-0.4896,-0.4864,-0.4875,-0.4862,-0.4843,-0.4842,-0.4835,-0.4833,-0.4828,-0.4825,-0.4821,-0.4788,-0.476,-0.481,-0.4765,-0.4797,-0.4798,-0.4811,-0.481,-0.4924,-0.481,-0.481,-0.481,-0.481,0,-0.4969,-0.4992,-0.4941,-0.4954,-0.4978,-0.4936,-0.4961,-0.4943,-0.4927,-0.4935,-0.4891,-0.4899,-0.4854,-0.4858,-0.4831,-0.485,-0.4849,-0.4836,-0.4829,-0.4841,-0.4842,-0.484,-0.4835,-0.4812,-0.4812,-0.4811,-0.4811,0,-0.5074,-0.504,-0.5059,-0.5027,-0.5019,-0.5038,-0.5011,-0.5021,-0.4997,-0.5008,-0.5008,-0.4971,-0.4972,-0.4938,-0.4933,-0.4915,-0.4945,-0.493,-0.4951,-0.4946,-0.498,-0.4978,-0.5097,-0.511,-0.4988,-0.4989,-0.499,0,-0.5132,-0.5149,-0.5118,-0.512,-0.5109,-0.5113,-0.5111,-0.507,-0.507,-0.5051,-0.5063,-0.5061,-0.5057,-0.5062,-0.5034,-0.503,-0.5014,-0.5056,-0.5013,-0.5023,-0.5014,-0.5014,-0.5015,-0.5065,-0.5067,-0.5068,-0.5069,0,-0.524,-0.5222,-0.5221,-0.5213,-0.5212,-0.5205,-0.5194,-0.5198,-0.5153,-0.5155,-0.5156,-0.5153,-0.5147,-0.5145,-0.5135,-0.5121,-0.5088,-0.5082,-0.5089,-0.5102,-0.5113,-0.5107,-0.4976,-0.508,-0.5079,-0.5078,-0.5078,-0.5077,-0.5323,-0.5335,-0.5314,-0.5314,-0.5302,-0.5292,-0.53,-0.5277,-0.5276,-0.5268,-0.5244,-0.5248,-0.5229,-0.5212,-0.5202,-0.5204,-0.5184,-0.5194,-0.5197,-0.52,-0.5207,-0.5112,-0.5202,-0.5202,-0.5202,-0.5201,-0.5201,0,-0.5428,-0.5412,-0.5412,-0.5398,-0.5398,-0.5365,-0.5351,-0.5353,-0.5357,-0.5343,-0.5339,-0.5339,-0.5337,-0.5309,-0.5303,-0.531,-0.5295,-0.531,-0.5309,-0.5307,-0.5226,-0.522,-0.5323,-0.5323,-0.5323,-0.5323,-0.5323,-0.5323,-0.5483,-0.5501,-0.548,-0.5491,-0.5475,-0.5478,-0.5473,-0.5464,-0.5452,-0.5454,-0.5451,-0.5433,-0.5412,-0.5404,-0.54,-0.5392,-0.5392,-0.5412,-0.5399,-0.5324,-0.5312,-0.5301,-0.5296,-0.5413,-0.5413,-0.548,-0.548,-0.5481]}]]